Flag for Canada Weather past 2 weeks in Mount Pearl, Newfoundland and Labrador, Canada

Now
50 °F

Broken clouds.


Feels Like: 43 °F
Forecast: 44 / 61 °F
Wind: 25 mph from Southwest

Location: St. John's

Current Time: May 25, 2015 at 7:52:34 AM

Latest Report: May 25, 2015 at 7:30 AM


Visibility: 15 mi

Pressure: 30.19 "Hg

Humidity: 82%

Dew point: 45 °F

Location of Mount PearlLocation

Historic Weather in Mount Pearl — Graph

°F

Mount Pearl temperature yesterday

Maximum temperature yesterday: 57 °F (at 3:30 PM)
Minimum temperature yesterday: 37 °F (at 4:30 AM)
Average temperature yesterday: 47 °F

Past Weeks' High & Low Weather Summary

 TemperatureHumidityPressure
High64 °F (May 15, 2:30 PM)100% (May 10, 8:30 AM)30.51 "Hg (May 10, 8:30 AM)
Low28 °F (May 11, 8:30 PM)32% (May 15, 1:30 PM)29.33 "Hg (May 13, 6:30 AM)
Average44 °F80%29.98 "Hg
* Reported May 10 6:30 AM — May 25 6:30 AM, Mount Pearl, Weather by CustomWeather, © 2015

Note: Actual official high and low records may vary slightly from our data, if they occured in-between our weather recording intervals... More about our weather records

Advertising

Mount Pearl weather history for previous 24 hours

 ConditionsComfort  
Time TempWeatherWind HumidityBarometerVisibility
6:30 AM
Mon, May 25
46 °FBroken clouds.26 mph87%30.19 "Hg15 mi
5:30 AM46 °FPassing clouds.26 mph82%30.19 "Hg15 mi
4:30 AM46 °FPassing clouds.25 mph82%30.17 "Hg14 mi
3:30 AM46 °FOvercast.21 mph82%30.17 "Hg15 mi
2:30 AM46 °FOvercast.22 mph82%30.17 "Hg15 mi
1:30 AM46 °FMostly cloudy.29 mph82%30.17 "Hg15 mi
12:30 AM48 °FOvercast.33 mph71%30.16 "Hg15 mi
11:30 PM
Sun, May 24
48 °FMostly cloudy.26 mph71%30.16 "Hg15 mi
10:30 PM46 °FOvercast.18 mph66%30.16 "Hg15 mi
9:30 PM46 °FOvercast.20 mph66%30.16 "Hg15 mi
8:30 PM48 °FBroken clouds.17 mph50%30.15 "Hg15 mi
7:30 PM52 °FPassing clouds.22 mph41%30.14 "Hg15 mi
6:30 PM54 °FPassing clouds.24 mph41%30.12 "Hg15 mi
5:30 PM55 °FPassing clouds.26 mph38%30.11 "Hg15 mi
4:30 PM57 °FPassing clouds.25 mph39%30.09 "Hg15 mi
3:30 PM57 °FPassing clouds.25 mph39%30.08 "Hg15 mi
2:30 PM55 °FPassing clouds.33 mph41%30.06 "Hg15 mi
1:30 PM55 °FPassing clouds.35 mph47%30.03 "Hg15 mi
12:30 PM54 °FPassing clouds.25 mph54%30.01 "Hg15 mi
11:30 AM52 °FPassing clouds.28 mph58%30.00 "Hg15 mi
10:30 AM48 °FScattered clouds.29 mph71%29.98 "Hg15 mi
9:30 AM43 °FOvercast.24 mph87%29.98 "Hg15 mi
8:30 AM41 °FPartly sunny.23 mph87%29.97 "Hg15 mi
7:30 AM41 °FPartly sunny.24 mph81%29.96 "Hg15 mi
Weather by CustomWeather, © 2015

See weather overviewHow to use our weather pages